IRIDIUM 33 DEB, 38022

Orbit data source: Space-Track

IRIDIUM 33 DEB, 38022 is space debris in LEO originally from a launch on Sun, 14 Sep 1997 UTC launched from the Tyuratam Missile And Space Complex (TTMTR). The debris from Iridium 33, an American commercial communications satellite, has been tracked extensively since its accidental collision with the defunct Russian satellite Cosmos 2251 in 2009. This event, occurring at high speed in low Earth orbit (LEO), generated thousands of pieces of space debris, significantly increasing the risk of further collisions. The Iridium 33 debris cloud has impacted space traffic management and orbital debris mitigation strategies, making it a subject of ongoing study in space situational awareness.

Loading next visibility...
Identifier
38022, 1997-051YJ
Orbit
LEO
Country
Flag of USUS
Related business
Manufacturer
Unknown
Mission
Spacecraft
Bus & Motor
Unknown
Mass
Unknown
Launch date (UTC)
1997-09-14 (29 years ago)
Launch vehicle
Unknown
Launch site
Tyuratam Missile And Space Complex (TTMTR)
Object type
Payload
Rocket body
Debris
Shape & HBR
Unknown shape, 0.1 m
Radar Cross Section
Small (<0.1 m²)

Expand to show TLE details & history
Last TLE update: 1 day ago

TLE from 1 day ago
0 IRIDIUM 33 DEB
1 38022U 97051YJ  26120.29515211  .00002678  00000-0  79558-3 0  9994
2 38022  86.2653 315.7237 0042906 312.9632  46.7973 14.42404033711901
Epoch: 2026-04-30T07:05Z
TLE epoch observation values (Epoch: 2026-04-30T07:05:01.142Z)
Latitude
0.00001°
Longitude
-8.77487°
Altitude
732.754 km
Speed
7.5 km/s
True Right ascension
21h 02m 53s
True Declination
0° 00' 00"
Sunlit
Object was in daylight at epoch
Visualization orbit readout
Latitude
Unknown
Longitude
Unknown
Altitude
Unknown
Speed
Unknown
Apparent Right ascension
Unknown
Apparent Declination
Unknown
Sunlit
N/A
Visualization observer readout
Local Sidereal Time
01:16:32
Azimuth
Unknown
Elevation
Unknown
Doppler factor
Unknown
Orbital elements
Apogee altitude
778.095 km
Perigee altitude
716.949 km
Semi-major axis
7,125.659 km
Eccentricity
0.00429
Inclination
86.2653°
RAAN
315.7237°
Arg. of periapsis
312.9632°
True anomaly
47.15701°
Mean anomaly
46.7973°
Eccentric anomaly
46.97702°
Mean motion
3.60832 °/min
Orbital period
99.77 mins
BSTAR
0.00079558
Loading maneuver chart data...
Computing Atmospheric mass density...
Loading historical data...
Loading historical data...
Loading historical data...
Loading historical data...
Loading historical data...
Loading historical data...
Loading historical data...

Documentation

Showing up to 5 results
|